TimeEDT,TemperatureF,Dew PointF,Humidity,Sea Level PressureIn,VisibilityMPH,Wind Direction,Wind SpeedMPH,Gust SpeedMPH,PrecipitationIn,Events,Conditions,WindDirDegrees,DateUTC
12:15 AM,58.1,57.6,98,30.26,5.0,Calm,Calm,-,N/A,,Scattered Clouds,0,2013-08-27 04:15:00
12:35 AM,57.7,57.4,99,30.26,4.0,Calm,Calm,-,N/A,,Mostly Cloudy,0,2013-08-27 04:35:00
12:55 AM,58.5,58.1,99,30.26,4.0,Calm,Calm,-,N/A,,Overcast,0,2013-08-27 04:55:00
1:15 AM,58.8,58.3,98,30.26,3.0,Calm,Calm,-,N/A,,Overcast,0,2013-08-27 05:15:00
1:35 AM,59.0,58.6,99,30.26,1.2,Calm,Calm,-,N/A,,Overcast,0,2013-08-27 05:35:00
1:55 AM,59.0,58.5,98,30.26,1.5,Calm,Calm,-,N/A,,Overcast,0,2013-08-27 05:55:00
2:15 AM,59.0,58.5,98,30.25,0.2,Calm,Calm,-,N/A,Fog,Fog,0,2013-08-27 06:15:00
2:35 AM,59.2,58.6,98,30.25,0.2,Calm,Calm,-,N/A,Fog,Fog,0,2013-08-27 06:35:00
2:55 AM,59.0,58.3,97,30.25,0.5,Calm,Calm,-,N/A,Fog,Fog,0,2013-08-27 06:55:00
3:15 AM,58.8,58.1,97,30.25,0.5,Calm,Calm,-,N/A,Fog,Fog,0,2013-08-27 07:15:00
3:35 AM,59.0,58.1,97,30.24,1.0,Calm,Calm,-,N/A,,Overcast,0,2013-08-27 07:35:00
3:55 AM,59.0,58.1,97,30.24,0.5,Calm,Calm,-,N/A,Fog,Fog,0,2013-08-27 07:55:00
4:15 AM,58.6,58.1,98,30.24,1.0,Calm,Calm,-,N/A,,Overcast,0,2013-08-27 08:15:00
4:35 AM,58.5,57.6,97,30.24,3.0,Calm,Calm,-,N/A,,Overcast,0,2013-08-27 08:35:00
4:55 AM,58.5,57.6,97,30.24,0.5,Calm,Calm,-,N/A,Fog,Fog,0,2013-08-27 08:55:00
5:15 AM,58.1,57.2,97,30.24,0.8,Calm,Calm,-,N/A,,Overcast,0,2013-08-27 09:15:00
5:35 AM,58.1,57.2,97,30.24,0.8,Calm,Calm,-,N/A,,Overcast,0,2013-08-27 09:35:00
5:55 AM,57.7,56.8,97,30.24,3.0,Calm,Calm,-,N/A,,Overcast,0,2013-08-27 09:55:00
6:15 AM,57.7,56.8,97,30.24,4.0,Calm,Calm,-,N/A,,Overcast,0,2013-08-27 10:15:00
6:35 AM,57.9,57.0,97,30.24,5.0,Calm,Calm,-,N/A,,Overcast,0,2013-08-27 10:35:00
6:55 AM,57.6,56.7,97,30.24,5.0,Calm,Calm,-,N/A,,Overcast,0,2013-08-27 10:55:00
7:15 AM,57.2,56.3,97,30.24,2.5,Calm,Calm,-,N/A,,Overcast,0,2013-08-27 11:15:00
7:35 AM,57.2,56.3,97,30.24,2.0,Calm,Calm,-,N/A,,Overcast,0,2013-08-27 11:35:00
7:55 AM,57.0,56.1,97,30.25,1.8,Calm,Calm,-,N/A,,Overcast,0,2013-08-27 11:55:00
8:15 AM,57.2,56.3,97,30.25,2.0,Calm,Calm,-,N/A,,Overcast,0,2013-08-27 12:15:00
8:35 AM,57.2,56.3,97,30.25,4.0,Calm,Calm,-,N/A,,Overcast,0,2013-08-27 12:35:00
8:55 AM,57.2,56.3,97,30.25,3.0,Calm,Calm,-,N/A,,Overcast,0,2013-08-27 12:55:00
9:15 AM,57.4,56.5,97,30.25,4.0,Calm,Calm,-,N/A,,Overcast,0,2013-08-27 13:15:00
9:35 AM,57.6,56.7,97,30.25,5.0,Calm,Calm,-,N/A,,Overcast,0,2013-08-27 13:35:00
9:55 AM,58.1,57.2,97,30.24,5.0,Calm,Calm,-,N/A,,Overcast,0,2013-08-27 13:55:00
10:15 AM,58.8,57.9,97,30.24,5.0,Calm,Calm,-,N/A,,Overcast,0,2013-08-27 14:15:00
10:35 AM,59.5,58.8,97,30.25,7.0,Calm,Calm,-,N/A,,Overcast,0,2013-08-27 14:35:00
10:55 AM,59.7,59.7,100,30.25,7.0,Calm,Calm,-,N/A,,Overcast,0,2013-08-27 14:55:00
11:15 AM,61.0,60.8,99,30.24,7.0,Calm,Calm,-,N/A,,Overcast,0,2013-08-27 15:15:00
11:35 AM,63.3,60.6,91,30.23,10.0,Calm,Calm,-,N/A,,Mostly Cloudy,0,2013-08-27 15:35:00
11:55 AM,66.4,60.4,81,30.23,10.0,Calm,Calm,-,N/A,,Scattered Clouds,0,2013-08-27 15:55:00
12:15 PM,69.1,60.3,73,30.22,10.0,Calm,Calm,-,N/A,,Clear,0,2013-08-27 16:15:00
12:35 PM,71.6,60.4,68,30.21,10.0,Calm,Calm,-,N/A,,Clear,0,2013-08-27 16:35:00
12:55 PM,74.5,59.5,60,30.20,10.0,Calm,Calm,-,N/A,,Clear,0,2013-08-27 16:55:00
1:15 PM,76.3,58.8,55,30.20,10.0,West,4.6,-,N/A,,Clear,280,2013-08-27 17:15:00
1:35 PM,77.9,58.8,52,30.18,10.0,West,3.5,-,N/A,,Clear,270,2013-08-27 17:35:00
1:55 PM,78.6,58.6,50,30.18,10.0,Calm,Calm,-,N/A,,Clear,0,2013-08-27 17:55:00
2:15 PM,79.9,59.5,50,30.17,10.0,West,4.6,-,N/A,,Clear,260,2013-08-27 18:15:00
2:35 PM,80.2,59.2,48,30.17,10.0,Calm,Calm,-,N/A,,Scattered Clouds,0,2013-08-27 18:35:00
2:55 PM,79.9,60.1,51,30.16,10.0,WSW,5.8,-,N/A,,Scattered Clouds,250,2013-08-27 18:55:00
3:15 PM,80.8,59.5,48,30.16,10.0,North,5.8,-,N/A,,Scattered Clouds,10,2013-08-27 19:15:00
3:35 PM,81.3,60.6,49,30.15,10.0,NW,5.8,-,N/A,,Clear,310,2013-08-27 19:35:00
3:55 PM,81.0,59.9,49,30.14,10.0,NW,4.6,-,N/A,,Clear,320,2013-08-27 19:55:00
4:15 PM,80.6,60.3,50,30.14,10.0,WNW,4.6,-,N/A,,Clear,300,2013-08-27 20:15:00
4:35 PM,81.5,60.3,48,30.14,10.0,WNW,3.5,-,N/A,,Clear,300,2013-08-27 20:35:00
4:55 PM,82.0,61.2,49,30.13,10.0,NW,4.6,-,N/A,,Clear,320,2013-08-27 20:55:00
5:15 PM,81.1,61.3,51,30.13,10.0,WNW,6.9,-,N/A,,Clear,290,2013-08-27 21:15:00
5:35 PM,80.4,61.2,52,30.14,10.0,NW,8.1,-,N/A,,Clear,310,2013-08-27 21:35:00
5:55 PM,79.9,61.2,53,30.13,10.0,WNW,5.8,-,N/A,,Scattered Clouds,300,2013-08-27 21:55:00
6:15 PM,77.9,61.5,57,30.13,10.0,NW,5.8,-,N/A,,Scattered Clouds,310,2013-08-27 22:15:00
6:35 PM,77.5,62.8,60,30.13,10.0,Calm,Calm,-,N/A,,Clear,0,2013-08-27 22:35:00
6:55 PM,77.7,62.8,60,30.13,10.0,Calm,Calm,-,N/A,,Clear,0,2013-08-27 22:55:00
7:15 PM,77.0,63.5,63,30.13,10.0,Calm,Calm,-,N/A,,Clear,0,2013-08-27 23:15:00
7:35 PM,75.2,66.0,73,30.13,10.0,Calm,Calm,-,N/A,,Clear,0,2013-08-27 23:35:00
7:55 PM,73.0,66.4,80,30.13,10.0,Calm,Calm,-,N/A,,Clear,0,2013-08-27 23:55:00
8:15 PM,70.3,65.3,84,30.14,7.0,SW,3.5,-,N/A,,Clear,230,2013-08-28 00:15:00
8:35 PM,69.1,64.4,85,30.14,10.0,Calm,Calm,-,N/A,,Clear,0,2013-08-28 00:35:00
8:55 PM,67.5,63.7,88,30.14,7.0,Calm,Calm,-,N/A,,Clear,0,2013-08-28 00:55:00
9:15 PM,66.2,63.5,91,30.14,7.0,Calm,Calm,-,N/A,,Clear,0,2013-08-28 01:15:00
9:35 PM,65.8,63.5,92,30.15,5.0,Calm,Calm,-,N/A,,Clear,0,2013-08-28 01:35:00
9:55 PM,65.7,63.3,92,30.16,5.0,Calm,Calm,-,N/A,,Clear,0,2013-08-28 01:55:00
10:15 PM,64.2,63.3,97,30.16,4.0,Calm,Calm,-,N/A,,Clear,0,2013-08-28 02:15:00
10:35 PM,64.0,63.5,98,30.17,4.0,Calm,Calm,-,N/A,,Clear,0,2013-08-28 02:35:00
10:55 PM,63.1,62.6,98,30.17,4.0,Calm,Calm,-,N/A,,Clear,0,2013-08-28 02:55:00
11:15 PM,63.0,62.6,99,30.17,3.0,Calm,Calm,-,N/A,,Clear,0,2013-08-28 03:15:00
11:35 PM,63.0,62.6,99,30.17,4.0,Calm,Calm,-,N/A,,Clear,0,2013-08-28 03:35:00
11:55 PM,62.2,61.9,99,30.17,5.0,Calm,Calm,-,N/A,,Clear,0,2013-08-28 03:55:00